Regional Weather Roundup
Issued by NWS Kansas City/Pleasant Hill, MO

Home | Current Version | Previous Version | Text Only | Print | Product List | Glossary On
Versions: 1 2 3 4 5 6 7 8 9 10 11 12 13 14 15 16 17 18 19 20 21 22 23 24 25 26 27 28 29 30 31 32 33 34 35 36 37 38 39 40 41 42 43 44 45 46 47 48 49 50
000
ASUS43 KEAX 020310
RWREAX

WEATHER ROUNDUP FOR EASTERN KANSAS AND NORTHWEST MISSOURI
NATIONAL WEATHER SERVICE KANSAS CITY/PLEASANT HILL MO
1000 PM CDT TUE SEP 01 2015

KSZ040-057-103>105-MOZ028-029-037-043-020400-
...KANSAS CITY METROPOLITAN AREA...

CITY           SKY/WX    TMP DP  RH WIND       PRES   REMARKS
K.C. INTL      CLEAR     73  66  78 S12       30.02R
K.C. DOWNTOWN  CLEAR     81  67  62 S7        30.01R
LEES SUMMIT    CLEAR     79  64  60 S7        30.04R
OLATHE - IXD   CLEAR     74  67  78 S7        30.03R
OLATHE - OJC   CLEAR     73  68  84 S8        30.03R
LAWRENCE       CLEAR     73  66  78 SE7       30.01R

$$

MOZ001>008-011>017-020>025-030>033-038>040-044>046-053-054-020400-
...NORTHERN AND CENTRAL MISSOURI...

CITY           SKY/WX    TMP DP  RH WIND       PRES   REMARKS
ST. JOSEPH     CLEAR     77  67  71 S8        30.00R
MOSBY          CLEAR     75  68  78 SE3       30.02R
WARRENSBURG    CLEAR     73  66  78 SE5       30.04R
WHITEMAN AFB   CLEAR     76  67  75 S5        30.04R
CLINTON        CLEAR     73  70  88 CALM      30.05R
SEDALIA        CLEAR     75  68  78 S6        30.07R
WARSAW         NOT AVBL
CHILLICOTHE      N/A     75  70  84 CALM      30.04R
KIRKSVILLE     PTCLDY    74  69  85 S7        30.05R

$$

MOZ041-047>049-056>058-063>065-088>090-097-020400-
...EASTERN AND SOUTHERN MISSOURI...

CITY           SKY/WX    TMP DP  RH WIND       PRES   REMARKS
ST. LOUIS INTL CLEAR     84  69  60 S7        30.09R
SPIRIT OF STL  CLEAR     78  73  84 S5        30.07R
COLUMBIA       CLEAR     75  69  81 SE6       30.07R
JEFFERSON CITY CLEAR     76  70  82 E5        30.06R
ROLLA          CLEAR     76  69  79 S7        30.08S
OSAGE BEACH    CLEAR     79  68  69 S3        30.08R
SPRINGFIELD    CLEAR     75  68  78 S6        30.09R
BRANSON        PTCLDY    77  64  65 CALM      30.11R
JOPLIN         CLEAR     76  65  68 SE6       30.06R
WEST PLAINS    CLEAR     73  69  87 CALM      30.13R

$$

IAZ060-094-KSZ022-034>040-054-083-096-NEZ052-066-093-020400-
...KANSAS...SOUTHEAST NEBRASKA AND IOWA...

CITY           SKY/WX    TMP DP  RH WIND       PRES   REMARKS
TOPEKA         CLEAR     78  67  68 SE10      29.99R
MANHATTAN      PTCLDY    81  67  62 S14       29.94R
EMPORIA        CLEAR     77  66  68 S13       30.01R
CHANUTE        CLEAR     76  69  79 SE9       30.03R
WICHITA        PTCLDY    81  67  62 SE17      29.98R
OMAHA          CLOUDY    80  68  66 SE14      29.91R
LINCOLN        MOCLDY    81  65  58 S17G25    29.90R
FALLS CITY     PTCLDY    78  68  71 S10       29.96R
LAMONI         CLEAR     77  69  76 S7        30.01R
DES MOINES     PTCLDY    77  68  73 S6        29.97S

$$



USA.gov is the U.S. government's official web portal to all federal, state and local government web resources and services.